[[{"header":{"parameterUnit":"m.s-1","parameterCategory":1,"la1":30.2991,"la2":30.254,"lo1":-89.0895,"lo2":-89.0444,"dy":0.0017,"dx":0.0017,"nx":28,"ny":28,"refTime":"2026-03-04T09:00:00:Z","depth":0,"parameterNumber":2,"parameterNumberName":"U-component_of_WINDS"},"data":[0,0,0,0,0,0,0,0,0,0,0,0,0,0,0,0,0,0,0,0,0,0,0,0,0,0,0,0,0,0,0,0,0,0,0,0,0,0,0,0,0,0,0,0,0,0,0,0,0,0,0,0,0,0,0,0,0,0,-3.4026,-3.4027,0,-3.4103,-3.4104,-3.4105,-3.4091,-3.409,-3.4088,-3.4087,-3.4163,-3.4166,-3.4169,0,0,0,0,0,0,0,0,0,0,0,0,0,-3.3865,-3.3868,-3.4026,-3.4027,-3.4028,-3.4103,-3.4104,-3.4105,-3.4091,-3.409,-3.4088,-3.4086,-3.4162,-3.4165,-3.4169,0,0,0,0,0,0,0,0,0,0,0,0,0,-3.3938,-3.3869,-3.4026,-3.403,-3.4031,-3.4103,-3.4104,-3.4105,-3.4092,-3.409,-3.4088,-3.4086,-3.416,-3.4165,-3.417,-3.4241,0,0,-3.4185,-3.4187,0,0,0,0,0,0,0,0,-3.3933,-3.3943,-3.4028,-3.403,-3.4031,-3.4086,-3.4075,-3.4151,-3.4092,-3.4069,-3.4087,-3.4085,-3.4138,-3.4145,-3.4164,-3.4245,-3.4248,-3.4185,-3.4188,-3.4191,-3.4192,0,0,0,0,0,0,0,-3.3928,-3.394,-3.4056,-3.403,-3.4031,-3.4028,-3.4036,-3.4089,-3.4114,-3.407,-3.407,-3.4079,-3.4139,-3.4159,-3.4166,-3.4249,-3.4185,-3.419,-3.4193,-3.4195,-3.4394,-3.4396,0,0,0,0,0,0,-3.3922,-3.3936,-3.4054,-3.4059,-3.3976,-3.4032,-3.4041,-3.407,-3.4113,-3.4118,-3.4081,-3.4078,-3.4152,-3.416,-3.4168,-3.4255,-3.419,-3.4195,-3.4198,-3.4391,-3.4394,-3.4397,0,0,0,0,0,0,-3.3919,-3.3933,-3.4051,-3.3997,-3.4012,-3.4037,-3.407,-3.4073,-3.4093,-3.4121,-3.4125,-3.4097,-3.415,-3.4161,-3.4224,-3.4257,-3.4197,-3.4202,-3.4388,-3.4392,-3.4395,-3.4428,0,0,0,0,0,0,-3.3914,-3.3932,-3.3959,-3.3998,-3.4015,-3.4105,-3.4072,-3.4076,-3.4102,-3.4099,-3.4138,-3.4142,-3.415,-3.4216,-3.4229,-3.4263,-3.4206,-3.4386,-3.439,-3.4394,-3.4424,-3.4432,-3.4439,0,0,0,0,0,-3.3909,-3.3964,-3.3961,-3.3975,-3.405,-3.4107,-3.4117,-3.4126,-3.4105,-3.4132,-3.4151,-3.4141,-3.4252,-3.4223,-3.4236,-3.4273,-3.4383,-3.4389,-3.4394,-3.442,-3.443,-3.4439,0,0,0,0,0,0,-3.3927,-3.3969,-3.3966,-3.4036,-3.4068,-3.4105,-3.414,-3.4136,-3.4174,-3.417,-3.4178,-3.4187,-3.425,-3.4268,-3.4235,-3.4345,-3.4315,-3.4323,-3.433,-3.434,-3.4347,-3.4341,-3.421,0,0,0,0,0,-3.3939,-3.3983,-3.4018,-3.4076,-3.4093,-3.4114,-3.4139,-3.4144,-3.4177,-3.419,-3.4213,-3.4245,-3.4288,-3.4315,-3.4355,-3.4427,-3.4435,-3.4459,-3.4467,-3.4473,-3.4479,-3.4519,-3.453,-3.4414,-3.4414,-3.4414,0,0,-3.3965,-3.3993,-3.402,-3.4081,-3.4106,-3.4151,-3.4125,-3.4173,-3.4207,-3.4197,-3.4258,-3.4276,-3.4313,-3.438,-3.4411,-3.4397,-3.4514,-3.4479,-3.4484,-3.4487,-3.4525,-3.4536,-3.4546,-3.4417,-3.4417,-3.4416,0,0,-3.4034,-3.406,-3.4112,-3.4139,-3.4179,-3.4193,-3.4206,-3.4244,-3.4257,-3.4318,-3.4312,-3.4352,-3.4425,-3.4451,-3.4474,-3.4557,-3.4549,-3.457,-3.4609,-3.4648,-3.4657,-3.4665,-3.4694,-3.4704,-3.4577,-3.4577,-3.4577,0,-3.4059,-3.4128,-3.4139,-3.4189,-3.4215,-3.4212,-3.4264,-3.429,-3.434,-3.4359,-3.4343,-3.4435,-3.4459,-3.4534,-3.4554,-3.4573,-3.4588,-3.4564,-3.4655,-3.4663,-3.4671,-3.4699,-3.471,-3.4579,-3.4579,-3.4579,-3.4579,0,-3.4158,-3.4205,-3.4242,-3.4293,-3.4325,-3.4375,-3.4394,-3.4425,-3.4427,-3.4443,-3.4506,-3.4536,-3.4583,-3.4601,-3.4604,-3.4677,-3.4667,-3.4653,-3.4622,-3.4684,-3.471,-3.4721,-3.4582,-3.4582,-3.4581,-3.458,0,0,-3.4237,-3.4296,-3.4309,-3.4333,-3.4379,-3.4415,-3.4467,-3.4514,-3.454,-3.4576,-3.4619,-3.4682,-3.4671,-3.4697,-3.4702,-3.4737,-3.4801,-3.4719,-3.472,-3.4732,-3.4883,-3.4892,-3.4904,-3.4797,-3.4799,-3.4801,-3.4879,0,-3.4309,-3.44,-3.4413,-3.4494,-3.4538,-3.4537,-3.4581,-3.4614,-3.4631,-3.4671,-3.4689,-3.4734,-3.4715,-3.4731,-3.4766,-3.4786,-3.4831,-3.478,-3.4836,-3.4837,-3.4825,-3.4917,-3.4927,-3.4999,-3.489,-3.4892,-3.4893,0,-3.4405,-3.4446,-3.4531,-3.4572,-3.4591,-3.4631,-3.4677,-3.4715,-3.4753,-3.4763,-3.4794,-3.4796,-3.4849,-3.4819,-3.4892,-3.4858,-3.4882,-3.4895,-3.4899,-3.4902,-3.4867,-3.4922,-3.5022,-3.5033,-3.4909,-3.4908,-3.4907,0,-3.4453,-3.453,-3.4591,-3.4611,-3.4661,-3.4689,-3.4711,-3.4747,-3.4776,-3.4816,-3.4834,-3.4879,-3.4904,-3.4939,-3.4953,-3.493,-3.5025,-3.4996,-3.5034,-3.5034,-3.5052,-3.5051,-3.5156,-3.5071,-3.5071,-3.507,-3.507,0,-3.4532,-3.4583,-3.4613,-3.465,-3.4709,-3.4724,-3.4782,-3.4802,-3.4835,-3.4876,-3.4878,-3.4917,-3.4934,-3.4976,-3.4988,-3.5046,-3.5058,-3.5067,-3.5069,-3.5066,-3.5064,-3.508,-3.5074,-3.5073,-3.5073,-3.5072,-3.5072,0,-3.4594,-3.4616,-3.4683,-3.4726,-3.4738,-3.4779,-3.4815,-3.4852,-3.487,-3.4922,-3.4935,-3.4963,-3.5012,-3.5031,-3.5091,-3.5099,-3.5166,-3.5165,-3.5154,-3.5154,-3.5191,-3.5187,-3.5308,-3.5325,-3.523,-3.5231,-3.5232,0,-3.4641,-3.4682,-3.473,-3.4759,-3.4782,-3.4828,-3.4858,-3.4875,-3.4906,-3.4953,-3.4984,-3.5034,-3.5074,-3.5152,-3.5177,-3.5223,-3.5222,-3.5262,-3.5229,-3.5225,-3.5222,-3.5218,-3.5222,-3.5267,-3.5268,-3.5269,-3.5269,0,-3.4723,-3.4733,-3.4777,-3.4825,-3.4861,-3.4899,-3.4936,-3.4959,-3.4982,-3.5017,-3.5068,-3.51,-3.5162,-3.5211,-3.5258,-3.528,-3.5279,-3.528,-3.5291,-3.5287,-3.5279,-3.5283,-3.5169,-3.5277,-3.5276,-3.5275,-3.5275,-3.5275,-3.4779,-3.4815,-3.4856,-3.4904,-3.4935,-3.497,-3.5007,-3.5031,-3.5074,-3.5127,-3.5135,-3.519,-3.5228,-3.5292,-3.5317,-3.536,-3.5349,-3.5365,-3.5369,-3.5372,-3.5374,-3.5274,-3.5369,-3.5368,-3.5368,-3.5368,-3.5368,0,-3.486,-3.4887,-3.4932,-3.4985,-3.5024,-3.5022,-3.5063,-3.5095,-3.5144,-3.5181,-3.5221,-3.5281,-3.5329,-3.5359,-3.5408,-3.5436,-3.5437,-3.5448,-3.5445,-3.5451,-3.5382,-3.5367,-3.5447,-3.5447,-3.5447,-3.5447,-3.5447,-3.5447,-3.4907,-3.4968,-3.4983,-3.506,-3.5086,-3.5141,-3.5165,-3.5198,-3.5228,-3.5294,-3.5335,-3.5355,-3.539,-3.5441,-3.5486,-3.5493,-3.551,-3.5523,-3.5529,-3.5464,-3.5455,-3.5447,-3.5433,-3.5527,-3.5527,-3.5595,-3.5595,-3.5596]},{"header":{"parameterUnit":"m.s-1","parameterCategory":1,"la1":30.2991,"la2":30.254,"lo1":-89.0895,"lo2":-89.0444,"dy":0.0017,"dx":0.0017,"nx":28,"ny":28,"refTime":"2026-03-04T09:00:00:Z","depth":0,"parameterNumber":3,"parameterNumberName":"V-component_of_WINDS"},"data":[0,0,0,0,0,0,0,0,0,0,0,0,0,0,0,0,0,0,0,0,0,0,0,0,0,0,0,0,0,0,0,0,0,0,0,0,0,0,0,0,0,0,0,0,0,0,0,0,0,0,0,0,0,0,0,0,0,0,2.357,2.3571,0,2.3618,2.3618,2.3619,2.3634,2.3633,2.3633,2.3633,2.3679,2.368,2.3682,0,0,0,0,0,0,0,0,0,0,0,0,0,2.3493,2.3495,2.357,2.3571,2.3571,2.3617,2.3618,2.3619,2.3634,2.3633,2.3633,2.3633,2.3679,2.368,2.3682,0,0,0,0,0,0,0,0,0,0,0,0,0,2.3532,2.3495,2.357,2.3584,2.3586,2.3617,2.3618,2.3619,2.3634,2.3633,2.3633,2.3633,2.3678,2.368,2.3682,2.3702,0,0,2.3689,2.369,0,0,0,0,0,0,0,0,2.353,2.3535,2.3582,2.3584,2.3586,2.3619,2.3608,2.3647,2.3634,2.3616,2.3633,2.3633,2.3659,2.3663,2.3672,2.3704,2.3706,2.3689,2.369,2.3691,2.3692,0,0,0,0,0,0,0,2.3527,2.3533,2.3589,2.3582,2.3585,2.3589,2.3594,2.3615,2.3638,2.3617,2.3618,2.3624,2.366,2.367,2.3674,2.3706,2.3689,2.3691,2.3692,2.3693,2.376,2.376,0,0,0,0,0,0,2.3522,2.3531,2.3587,2.359,2.3556,2.359,2.3596,2.3609,2.3638,2.3643,2.3624,2.3624,2.3667,2.3671,2.3675,2.3702,2.3691,2.3693,2.3694,2.3759,2.376,2.3761,0,0,0,0,0,0,2.352,2.3527,2.3585,2.3561,2.3569,2.3592,2.3606,2.361,2.362,2.3644,2.3648,2.363,2.3667,2.3672,2.3696,2.3704,2.3694,2.3696,2.3759,2.376,2.376,2.3755,0,0,0,0,0,0,2.3518,2.3526,2.3534,2.3561,2.357,2.3605,2.3607,2.3611,2.3624,2.3625,2.365,2.3654,2.3667,2.3693,2.3698,2.3707,2.3698,2.3758,2.3759,2.376,2.3754,2.3755,2.3756,0,0,0,0,0,2.3515,2.3529,2.3534,2.3541,2.3579,2.3605,2.3611,2.3625,2.3624,2.3632,2.3648,2.3653,2.3702,2.3695,2.3701,2.3711,2.3758,2.3759,2.376,2.3754,2.3755,2.3756,0,0,0,0,0,0,2.35,2.3533,2.3538,2.3561,2.3581,2.3608,2.3618,2.3626,2.3645,2.3645,2.3662,2.3668,2.3691,2.3703,2.3694,2.3733,2.373,2.3733,2.3724,2.3725,2.3726,2.3722,2.3699,0,0,0,0,0,2.35,2.3518,2.3546,2.3563,2.3573,2.3594,2.3606,2.3616,2.3637,2.3644,2.3662,2.3681,2.3701,2.3714,2.3733,2.3757,2.3764,2.3767,2.3767,2.3768,2.377,2.3786,2.3788,2.3764,2.3764,2.3764,0,0,2.3498,2.3518,2.3529,2.3561,2.3577,2.3597,2.3601,2.362,2.3635,2.3647,2.3671,2.3685,2.3708,2.3733,2.3744,2.3743,2.3778,2.3769,2.377,2.3771,2.3787,2.3789,2.3791,2.3765,2.3765,2.3765,0,0,2.3506,2.3522,2.354,2.3558,2.3583,2.3598,2.3602,2.3629,2.3639,2.3664,2.3675,2.3693,2.3726,2.3743,2.3756,2.3775,2.3781,2.3781,2.3785,2.38,2.3802,2.3804,2.3812,2.3815,2.3782,2.3782,2.3782,0,2.35,2.353,2.3548,2.3569,2.3583,2.3597,2.3616,2.3632,2.3662,2.3672,2.3671,2.3716,2.3732,2.3762,2.3767,2.3777,2.3783,2.3777,2.38,2.3802,2.3804,2.3812,2.3815,2.3782,2.3782,2.3782,2.3782,0,2.3524,2.3545,2.3556,2.3587,2.3603,2.3622,2.3644,2.3658,2.3668,2.3683,2.371,2.373,2.3756,2.3764,2.3772,2.3796,2.3795,2.3797,2.3795,2.3806,2.3814,2.3817,2.3782,2.3782,2.3782,2.3782,0,0,2.352,2.3564,2.3568,2.3584,2.3615,2.3631,2.3652,2.3679,2.3692,2.3713,2.3732,2.3762,2.3765,2.378,2.3791,2.3805,2.3821,2.3806,2.3807,2.3809,2.385,2.3849,2.3852,2.3826,2.3826,2.3827,2.3849,0,2.3533,2.3572,2.359,2.3621,2.3642,2.3658,2.3676,2.3698,2.3713,2.3734,2.375,2.3772,2.3774,2.3784,2.3798,2.3816,2.383,2.3814,2.3844,2.3845,2.3838,2.3856,2.3854,2.3874,2.3852,2.3853,2.3853,0,2.3551,2.3575,2.3609,2.3641,2.365,2.3667,2.3695,2.3713,2.3739,2.375,2.3768,2.378,2.3804,2.3801,2.3835,2.3825,2.3838,2.3849,2.385,2.3854,2.3849,2.3861,2.388,2.3883,2.3858,2.3857,2.3857,0,2.3548,2.3588,2.3614,2.3627,2.3664,2.3676,2.3692,2.3718,2.3734,2.3758,2.3768,2.3794,2.3809,2.3829,2.3848,2.3844,2.3881,2.3879,2.3891,2.3891,2.3897,2.3897,2.392,2.3905,2.3905,2.3905,2.3905,0,2.3559,2.358,2.3613,2.3629,2.3653,2.3675,2.3698,2.3715,2.3739,2.3759,2.3774,2.3793,2.3816,2.3838,2.3853,2.3881,2.3887,2.3896,2.39,2.3895,2.3894,2.3904,2.3903,2.3906,2.3906,2.3906,2.3906,0,2.3558,2.3581,2.3611,2.3646,2.3655,2.3671,2.3701,2.3718,2.3736,2.3761,2.3769,2.3796,2.3823,2.3845,2.3879,2.389,2.3919,2.3922,2.391,2.3912,2.3924,2.3923,2.3954,2.3961,2.3941,2.3941,2.3941,0,2.3564,2.3581,2.3618,2.3634,2.365,2.3674,2.3692,2.3715,2.3732,2.3765,2.3778,2.3807,2.3831,2.3874,2.3897,2.3925,2.393,2.3939,2.3934,2.3929,2.3931,2.393,2.3933,2.3939,2.3939,2.394,2.394,0,2.3573,2.3585,2.361,2.364,2.3661,2.3685,2.3709,2.3721,2.3749,2.3768,2.3797,2.3816,2.3853,2.3882,2.3913,2.3929,2.394,2.3942,2.3946,2.3941,2.3934,2.394,2.3913,2.394,2.394,2.394,2.394,2.394,2.3577,2.3593,2.3623,2.3651,2.3673,2.3697,2.3715,2.3737,2.3762,2.3795,2.3807,2.3837,2.3866,2.3908,2.3926,2.395,2.3951,2.3957,2.3958,2.396,2.396,2.3931,2.3956,2.3956,2.3956,2.3956,2.3956,0,2.3587,2.3609,2.3634,2.367,2.3692,2.3702,2.3731,2.3749,2.3776,2.3802,2.3827,2.3862,2.3891,2.3918,2.3948,2.3963,2.3969,2.397,2.397,2.3974,2.3957,2.3951,2.3966,2.3966,2.3966,2.3965,2.3965,2.3965,2.3596,2.3625,2.3641,2.3682,2.3703,2.3735,2.375,2.3773,2.3794,2.3833,2.3858,2.3876,2.3904,2.3937,2.3965,2.3972,2.3983,2.3984,2.3992,2.3976,2.3974,2.3973,2.3968,2.3986,2.3986,2.4007,2.4007,2.4007]}]]